Time,TemperatureF,DewpointF,PressureIn,WindDirection,WindDirectionDegrees,WindSpeedMPH,WindSpeedGustMPH,Humidity,HourlyPrecipIn,Conditions,Clouds,dailyrainin,SoftwareType,DateUTC
2013-06-02 00:10:00,79.2,35.0,29.69,West,263,2.0,-999.0,20,-99.99,,,0.00,weatherlink.com 1.10,2013-06-02 07:10:00,
2013-06-02 00:25:00,78.6,34.0,29.69,West,263,0.0,-999.0,20,-99.99,,,0.00,weatherlink.com 1.10,2013-06-02 07:25:00,
2013-06-02 00:40:00,77.9,34.0,29.69,West,263,0.0,-999.0,20,-99.99,,,0.00,weatherlink.com 1.10,2013-06-02 07:40:00,
2013-06-02 00:55:00,77.4,33.0,29.68,West,264,0.0,-999.0,20,-99.99,,,0.00,weatherlink.com 1.10,2013-06-02 07:55:00,
2013-06-02 01:10:00,76.5,35.0,29.68,West,264,0.0,-999.0,22,-99.99,,,0.00,weatherlink.com 1.10,2013-06-02 08:10:00,
2013-06-02 01:26:00,75.6,35.0,29.67,West,264,0.0,-999.0,23,-99.99,,,0.00,weatherlink.com 1.10,2013-06-02 08:26:00,
2013-06-02 01:41:00,74.6,33.0,29.68,West,264,0.0,-999.0,22,-99.99,,,0.00,weatherlink.com 1.10,2013-06-02 08:41:00,
2013-06-02 01:56:00,73.9,34.0,29.67,West,264,0.0,-999.0,23,-99.99,,,0.00,weatherlink.com 1.10,2013-06-02 08:56:00,
2013-06-02 02:11:00,73.2,33.0,29.66,West,264,0.0,-999.0,23,-99.99,,,0.00,weatherlink.com 1.10,2013-06-02 09:11:00,
2013-06-02 02:26:00,72.5,31.0,29.66,West,264,0.0,-999.0,22,-99.99,,,0.00,weatherlink.com 1.10,2013-06-02 09:26:00,
2013-06-02 02:41:00,71.6,31.0,29.66,West,264,0.0,-999.0,22,-99.99,,,0.00,weatherlink.com 1.10,2013-06-02 09:41:00,
2013-06-02 02:56:00,70.8,31.0,29.66,West,264,0.0,-999.0,23,-99.99,,,0.00,weatherlink.com 1.10,2013-06-02 09:56:00,
2013-06-02 03:11:00,70.6,33.0,29.66,West,264,0.0,-999.0,25,-99.99,,,0.00,weatherlink.com 1.10,2013-06-02 10:11:00,
2013-06-02 03:26:00,70.6,33.0,29.66,West,264,0.0,-999.0,25,-99.99,,,0.00,weatherlink.com 1.10,2013-06-02 10:26:00,
2013-06-02 03:41:00,70.1,33.0,29.66,West,264,0.0,-999.0,25,-99.99,,,0.00,weatherlink.com 1.10,2013-06-02 10:41:00,
2013-06-02 03:56:00,69.3,31.0,29.65,West,264,0.0,-999.0,24,-99.99,,,0.00,weatherlink.com 1.10,2013-06-02 10:56:00,
2013-06-02 04:12:00,68.4,29.0,29.65,West,264,0.0,-999.0,23,-99.99,,,0.00,weatherlink.com 1.10,2013-06-02 11:12:00,
2013-06-02 04:27:00,67.9,30.0,29.66,West,264,0.0,-999.0,24,-99.99,,,0.00,weatherlink.com 1.10,2013-06-02 11:27:00,
2013-06-02 04:42:00,67.9,29.0,29.66,NW,323,5.0,-999.0,23,-99.99,,,0.00,weatherlink.com 1.10,2013-06-02 11:42:00,
2013-06-02 04:57:00,67.4,28.0,29.65,NNW,340,3.0,-999.0,23,-99.99,,,0.00,weatherlink.com 1.10,2013-06-02 11:57:00,
2013-06-02 05:12:00,66.9,29.0,29.66,NNW,331,0.0,-999.0,24,-99.99,,,0.00,weatherlink.com 1.10,2013-06-02 12:12:00,
2013-06-02 05:27:00,66.6,29.0,29.66,NNW,331,0.0,-999.0,24,-99.99,,,0.00,weatherlink.com 1.10,2013-06-02 12:27:00,
2013-06-02 05:42:00,66.1,28.0,29.66,NNW,331,0.0,-999.0,24,-99.99,,,0.00,weatherlink.com 1.10,2013-06-02 12:42:00,
2013-06-02 05:57:00,65.5,30.0,29.67,NNW,331,0.0,-999.0,26,-99.99,,,0.00,weatherlink.com 1.10,2013-06-02 12:57:00,
2013-06-02 06:12:00,65.0,30.0,29.67,NNW,331,0.0,-999.0,27,-99.99,,,0.00,weatherlink.com 1.10,2013-06-02 13:12:00,
2013-06-02 06:27:00,64.7,31.0,29.69,NNW,331,0.0,-999.0,28,-99.99,,,0.00,weatherlink.com 1.10,2013-06-02 13:27:00,
2013-06-02 06:42:00,64.2,28.0,29.69,NNW,331,0.0,-999.0,25,-99.99,,,0.00,weatherlink.com 1.10,2013-06-02 13:42:00,
2013-06-02 06:58:00,64.2,28.0,29.70,NNW,331,0.0,-999.0,26,-99.99,,,0.00,weatherlink.com 1.10,2013-06-02 13:58:00,
2013-06-02 07:13:00,65.6,31.0,29.70,NNW,331,0.0,-999.0,27,-99.99,,,0.00,weatherlink.com 1.10,2013-06-02 14:13:00,
2013-06-02 07:28:00,68.6,30.0,29.70,NNW,331,0.0,-999.0,24,-99.99,,,0.00,weatherlink.com 1.10,2013-06-02 14:28:00,
2013-06-02 07:43:00,71.6,33.0,29.69,NNW,329,0.0,-999.0,24,-99.99,,,0.00,weatherlink.com 1.10,2013-06-02 14:43:00,
2013-06-02 07:58:00,74.4,31.0,29.69,NNW,328,0.0,-999.0,20,-99.99,,,0.00,weatherlink.com 1.10,2013-06-02 14:58:00,
2013-06-02 08:13:00,77.9,30.0,29.68,SSW,213,2.0,-999.0,17,-99.99,,,0.00,weatherlink.com 1.10,2013-06-02 15:13:00,
2013-06-02 08:28:00,80.1,28.0,29.69,SW,225,2.0,-999.0,15,-99.99,,,0.00,weatherlink.com 1.10,2013-06-02 15:28:00,
2013-06-02 08:43:00,82.2,28.0,29.68,SSW,213,2.0,-999.0,14,-99.99,,,0.00,weatherlink.com 1.10,2013-06-02 15:43:00,
2013-06-02 08:58:00,84.9,29.0,29.67,WSW,250,2.0,-999.0,13,-99.99,,,0.00,weatherlink.com 1.10,2013-06-02 15:58:00,
2013-06-02 09:13:00,86.5,30.0,29.67,SW,232,6.0,-999.0,13,-99.99,,,0.00,weatherlink.com 1.10,2013-06-02 16:13:00,
2013-06-02 09:28:00,88.0,29.0,29.67,South,187,5.0,-999.0,12,-99.99,,,0.00,weatherlink.com 1.10,2013-06-02 16:28:00,
2013-06-02 09:44:00,88.8,32.0,29.66,SW,216,9.0,-999.0,13,-99.99,,,0.00,weatherlink.com 1.10,2013-06-02 16:44:00,
2013-06-02 09:59:00,89.7,36.0,29.66,SSW,213,7.0,-999.0,15,-99.99,,,0.00,weatherlink.com 1.10,2013-06-02 16:59:00,
2013-06-02 10:14:00,90.5,39.0,29.66,SW,215,10.0,-999.0,16,-99.99,,,0.00,weatherlink.com 1.10,2013-06-02 17:14:00,
2013-06-02 10:29:00,89.9,40.0,29.65,South,179,17.0,-999.0,17,-99.99,,,0.00,weatherlink.com 1.10,2013-06-02 17:29:00,
2013-06-02 10:44:00,89.5,39.0,29.65,South,188,23.0,-999.0,17,-99.99,,,0.00,weatherlink.com 1.10,2013-06-02 17:44:00,
2013-06-02 10:59:00,89.5,38.0,29.65,South,183,20.0,-999.0,16,-99.99,,,0.00,weatherlink.com 1.10,2013-06-02 17:59:00,
2013-06-02 11:14:00,89.9,38.0,29.66,South,172,18.0,-999.0,16,-99.99,,,0.00,weatherlink.com 1.10,2013-06-02 18:14:00,
2013-06-02 11:29:00,90.5,39.0,29.65,South,190,11.0,-999.0,16,-99.99,,,0.00,weatherlink.com 1.10,2013-06-02 18:29:00,
2013-06-02 11:44:00,92.1,36.0,29.64,South,169,18.0,-999.0,14,-99.99,,,0.00,weatherlink.com 1.10,2013-06-02 18:44:00,
2013-06-02 11:59:00,92.5,35.0,29.64,SSW,200,8.0,-999.0,13,-99.99,,,0.00,weatherlink.com 1.10,2013-06-02 18:59:00,
2013-06-02 12:14:00,92.7,37.0,29.64,South,183,24.0,-999.0,14,-99.99,,,0.00,weatherlink.com 1.10,2013-06-02 19:14:00,
2013-06-02 12:30:00,91.8,36.0,29.63,South,187,24.0,-999.0,14,-99.99,,,0.00,weatherlink.com 1.10,2013-06-02 19:30:00,
2013-06-02 12:45:00,91.6,36.0,29.64,South,182,21.0,-999.0,14,-99.99,,,0.00,weatherlink.com 1.10,2013-06-02 19:45:00,
2013-06-02 13:00:00,92.7,37.0,29.64,South,171,25.0,-999.0,14,-99.99,,,0.00,weatherlink.com 1.10,2013-06-02 20:00:00,
2013-06-02 13:15:00,93.8,36.0,29.63,South,174,17.0,-999.0,13,-99.99,,,0.00,weatherlink.com 1.10,2013-06-02 20:15:00,
2013-06-02 13:30:00,92.1,36.0,29.63,South,185,25.0,-999.0,14,-99.99,,,0.00,weatherlink.com 1.10,2013-06-02 20:30:00,
2013-06-02 13:45:00,91.8,36.0,29.64,South,186,21.0,-999.0,14,-99.99,,,0.00,weatherlink.com 1.10,2013-06-02 20:45:00,
2013-06-02 14:00:00,91.2,41.0,29.64,South,169,15.0,-999.0,17,-99.99,,,0.00,weatherlink.com 1.10,2013-06-02 21:00:00,
2013-06-02 14:15:00,91.8,38.0,29.64,South,189,23.0,-999.0,15,-99.99,,,0.00,weatherlink.com 1.10,2013-06-02 21:15:00,
2013-06-02 14:30:00,89.7,39.0,29.64,SSW,196,16.0,-999.0,17,-99.99,,,0.00,weatherlink.com 1.10,2013-06-02 21:30:00,
2013-06-02 14:45:00,89.3,36.0,29.64,South,190,24.0,-999.0,15,-99.99,,,0.00,weatherlink.com 1.10,2013-06-02 21:45:00,
2013-06-02 15:00:00,89.9,38.0,29.63,South,189,18.0,-999.0,16,-99.99,,,0.00,weatherlink.com 1.10,2013-06-02 22:00:00,
2013-06-02 15:15:00,89.7,36.0,29.64,SSW,194,19.0,-999.0,15,-99.99,,,0.00,weatherlink.com 1.10,2013-06-02 22:15:00,
2013-06-02 15:30:00,89.9,36.0,29.63,South,190,16.0,-999.0,15,-99.99,,,0.00,weatherlink.com 1.10,2013-06-02 22:30:00,
2013-06-02 15:46:00,88.2,40.0,29.63,South,185,20.0,-999.0,18,-99.99,,,0.00,weatherlink.com 1.10,2013-06-02 22:46:00,
2013-06-02 16:01:00,86.7,42.0,29.63,SSW,192,14.0,-999.0,21,-99.99,,,0.00,weatherlink.com 1.10,2013-06-02 23:01:00,
2013-06-02 16:16:00,85.5,44.0,29.64,SSW,196,15.0,-999.0,23,-99.99,,,0.00,weatherlink.com 1.10,2013-06-02 23:16:00,
2013-06-02 16:31:00,84.5,46.0,29.63,South,186,18.0,-999.0,26,-99.99,,,0.00,weatherlink.com 1.10,2013-06-02 23:31:00,
2013-06-02 16:46:00,83.6,46.0,29.64,South,189,18.0,-999.0,27,-99.99,,,0.00,weatherlink.com 1.10,2013-06-02 23:46:00,
2013-06-02 17:01:00,82.4,45.0,29.64,South,182,15.0,-999.0,27,-99.99,,,0.00,weatherlink.com 1.10,2013-06-03 00:01:00,
2013-06-02 17:16:00,82.2,45.0,29.64,South,172,18.0,-999.0,27,-99.99,,,0.00,weatherlink.com 1.10,2013-06-03 00:16:00,
2013-06-02 17:31:00,81.8,45.0,29.63,South,178,15.0,-999.0,27,-99.99,,,0.00,weatherlink.com 1.10,2013-06-03 00:31:00,
2013-06-02 17:46:00,81.8,44.0,29.64,South,185,25.0,-999.0,26,-99.99,,,0.00,weatherlink.com 1.10,2013-06-03 00:46:00,
2013-06-02 18:01:00,82.4,43.0,29.64,SSW,198,20.0,-999.0,25,-99.99,,,0.00,weatherlink.com 1.10,2013-06-03 01:01:00,
2013-06-02 18:16:00,82.0,45.0,29.65,SSW,197,13.0,-999.0,27,-99.99,,,0.00,weatherlink.com 1.10,2013-06-03 01:16:00,
2013-06-02 18:31:00,81.8,43.0,29.65,SSW,202,18.0,-999.0,25,-99.99,,,0.00,weatherlink.com 1.10,2013-06-03 01:31:00,
2013-06-02 18:46:00,81.4,43.0,29.65,SW,223,15.0,-999.0,26,-99.99,,,0.00,weatherlink.com 1.10,2013-06-03 01:46:00,
2013-06-02 19:02:00,80.1,42.0,29.66,South,175,21.0,-999.0,26,-99.99,,,0.00,weatherlink.com 1.10,2013-06-03 02:02:00,
2013-06-02 19:17:00,79.6,41.0,29.63,SSW,203,13.0,-999.0,25,-99.99,,,0.00,weatherlink.com 1.10,2013-06-03 02:17:00,
2013-06-02 19:32:00,78.6,41.0,29.64,SSW,198,13.0,-999.0,26,-99.99,,,0.00,weatherlink.com 1.10,2013-06-03 02:32:00,
2013-06-02 19:47:00,77.7,42.0,29.65,South,186,13.0,-999.0,28,-99.99,,,0.00,weatherlink.com 1.10,2013-06-03 02:47:00,
2013-06-02 20:02:00,77.0,41.0,29.65,South,186,13.0,-999.0,28,-99.99,,,0.00,weatherlink.com 1.10,2013-06-03 03:02:00,
2013-06-02 20:17:00,76.5,40.0,29.63,South,184,11.0,-999.0,27,-99.99,,,0.00,weatherlink.com 1.10,2013-06-03 03:17:00,
2013-06-02 20:32:00,75.8,40.0,29.63,South,190,10.0,-999.0,28,-99.99,,,0.00,weatherlink.com 1.10,2013-06-03 03:32:00,
2013-06-02 20:47:00,75.3,43.0,29.64,SSW,208,7.0,-999.0,31,-99.99,,,0.00,weatherlink.com 1.10,2013-06-03 03:47:00,
2013-06-02 21:02:00,74.7,43.0,29.65,SW,216,7.0,-999.0,32,-99.99,,,0.00,weatherlink.com 1.10,2013-06-03 04:02:00,
2013-06-02 21:17:00,73.9,44.0,29.64,SW,227,5.0,-999.0,34,-99.99,,,0.00,weatherlink.com 1.10,2013-06-03 04:17:00,
2013-06-02 21:32:00,73.9,41.0,29.64,WSW,237,14.0,-999.0,31,-99.99,,,0.00,weatherlink.com 1.10,2013-06-03 04:32:00,
2013-06-02 21:47:00,74.2,38.0,29.64,SW,229,9.0,-999.0,27,-99.99,,,0.00,weatherlink.com 1.10,2013-06-03 04:47:00,
2013-06-02 22:02:00,74.4,37.0,29.65,South,190,6.0,-999.0,26,-99.99,,,0.00,weatherlink.com 1.10,2013-06-03 05:02:00,
2013-06-02 22:17:00,74.0,36.0,29.66,SW,217,6.0,-999.0,25,-99.99,,,0.00,weatherlink.com 1.10,2013-06-03 05:17:00,
2013-06-02 22:33:00,73.3,34.0,29.66,SSW,203,1.0,-999.0,24,-99.99,,,0.00,weatherlink.com 1.10,2013-06-03 05:33:00,
2013-06-02 22:48:00,72.7,37.0,29.66,SW,224,9.0,-999.0,27,-99.99,,,0.00,weatherlink.com 1.10,2013-06-03 05:48:00,
2013-06-02 23:03:00,72.5,37.0,29.66,WSW,241,2.0,-999.0,27,-99.99,,,0.00,weatherlink.com 1.10,2013-06-03 06:03:00,
2013-06-02 23:18:00,72.1,38.0,29.66,WSW,250,0.0,-999.0,29,-99.99,,,0.00,weatherlink.com 1.10,2013-06-03 06:18:00,
2013-06-02 23:33:00,71.3,42.0,29.66,WSW,254,4.0,-999.0,35,-99.99,,,0.00,weatherlink.com 1.10,2013-06-03 06:33:00,
2013-06-02 23:48:00,70.1,43.0,29.66,WSW,257,4.0,-999.0,38,-99.99,,,0.00,weatherlink.com 1.10,2013-06-03 06:48:00,